GFSNIL_con_3kmhel_009.txt.gz
Helicity
199 185 162 141 128 119 93 70 61 64 70 68 76 88 90 89 94 97 105 106 128 145
210 204 187 180 165 132 110 88 88 90 79 71 80 91 92 96 99 105 111 124 137 166
224 222 214 203 181 151 119 102 101 89 79 81 96 99 101 106 105 112 122 128 157 162
249 251 237 207 173 142 122 112 98 94 93 98 104 103 102 100 96 124 136 147 166 163
269 265 241 208 171 141 124 103 108 112 108 110 102 95 98 111 125 140 157 153 155 159
283 262 224 187 154 138 123 122 121 115 107 100 97 100 110 125 131 143 151 156 159 145
267 228 189 166 151 128 119 116 114 110 105 96 92 99 100 115 132 147 160 152 148 141
232 195 182 167 138 113 114 119 108 102 93 89 99 99 102 117 142 159 156 152 147 144
199 197 178 149 111 112 123 108 99 92 90 102 102 77 71 105 150 160 164 155 150 161
204 182 152 120 112 118 106 100 91 91 107 117 123 85 96 96 137 172 174 172 178 174
168 155 142 120 115 107 100 102 99 107 118 136 130 95 86 96 156 174 171 173 173 145
152 144 128 120 113 105 104 106 112 122 128 135 123 90 115 137 170 171 182 184 155 123
139 120 115 109 103 101 98 105 126 121 118 98 126 112 109 145 177 187 185 167 138 75
121 106 92 96 95 98 107 122 127 128 127 120 113 113 89 120 162 157 155 149 140 125

GFSNIL_con_3kmhel_012.txt.gz
Helicity
194 196 190 171 157 129 99 81 78 79 78 91 106 111 112 102 97 89 92 86 99 120
227 241 229 212 181 149 126 113 119 112 113 118 123 118 111 103 98 95 95 96 104 125
254 257 238 213 191 170 156 146 139 129 129 127 115 117 114 111 106 106 112 107 123 136
267 258 238 216 197 184 164 153 142 129 133 122 129 127 121 116 102 109 110 114 138 148
263 246 237 227 210 176 167 154 138 133 124 133 132 119 116 111 107 112 132 146 161 157
247 240 236 224 198 186 177 148 134 133 143 138 127 114 108 103 112 128 152 157 155 152
227 231 224 213 205 191 159 136 144 151 142 131 115 99 90 108 128 149 149 150 168 176
230 226 228 225 198 168 141 145 149 154 141 119 102 89 104 126 140 140 163 179 190 186
226 229 221 199 177 154 163 161 161 147 115 102 98 101 128 140 153 172 177 170 181 204
212 208 191 176 171 170 162 156 143 119 105 106 112 123 133 156 180 176 164 174 188 186
190 186 182 175 163 151 149 150 126 109 102 103 106 129 159 165 170 163 168 173 172 171
184 181 159 154 157 153 146 126 110 97 94 109 114 124 144 148 155 143 142 156 171 127
158 151 153 154 168 135 118 93 97 104 114 107 131 102 114 133 137 139 155 160 134 55
151 156 154 156 135 110 100 99 104 106 115 120 113 117 87 103 143 150 163 151 128 112

GFSNIL_con_3kmhel_015.txt.gz
Helicity
196 186 175 157 160 163 164 154 143 132 120 116 115 113 118 117 124 116 115 111 115 117
211 216 201 201 206 197 188 165 152 143 140 131 129 133 135 128 123 117 114 111 109 126
235 232 229 229 223 215 198 180 168 159 157 159 153 145 141 129 115 117 119 119 128 140
262 253 250 248 236 221 203 196 191 177 180 169 152 149 139 123 113 126 123 128 134 137
259 250 258 246 233 221 214 206 195 189 188 170 157 140 130 127 119 117 123 125 138 139
254 250 240 237 234 224 225 218 207 205 190 169 148 134 123 114 111 116 122 124 137 143
232 225 229 236 239 243 228 217 214 201 180 159 133 115 106 106 109 114 115 136 149 145
220 227 241 249 254 236 223 215 208 190 161 143 120 103 103 104 108 115 138 129 132 154
221 233 247 251 233 225 232 221 183 166 157 138 110 85 107 128 140 147 120 129 152 183
222 232 230 228 237 243 213 181 182 171 138 114 101 88 113 131 141 121 132 157 180 185
209 215 224 237 236 199 184 187 173 135 110 107 101 109 115 92 130 148 158 176 170 152
193 217 224 217 205 197 191 157 127 112 106 106 107 99 93 120 152 172 159 158 134 93
214 211 207 203 212 168 138 123 119 107 109 105 109 88 109 136 151 152 160 147 107 85
217 213 206 189 160 141 129 119 115 118 104 102 109 117 112 114 146 158 160 148 135 116

GFSNIL_con_3kmhel_021.txt.gz
Helicity
236 250 240 287 264 211 198 183 158 154 139 126 118 117 115 109 104 92 88 87 90 103
262 299 318 287 249 239 222 195 171 155 146 142 141 136 128 118 109 108 112 107 108 110
250 325 328 282 263 244 223 198 174 167 166 158 150 142 133 127 126 115 114 115 110 107
345 333 295 274 253 238 217 189 187 182 172 162 152 147 143 140 119 114 114 116 123 125
368 328 297 270 246 217 216 206 197 185 178 165 156 150 148 125 110 113 121 123 133 133
328 299 274 251 231 225 219 214 201 188 184 166 155 144 121 103 108 115 115 124 126 131
267 251 240 233 232 221 212 209 201 196 171 155 141 123 106 100 105 112 113 125 132 129
246 238 239 239 229 229 226 215 199 170 152 145 122 112 101 101 110 116 125 125 117 118
231 226 226 225 230 235 224 203 175 156 147 135 118 94 96 108 118 129 128 114 109 128
212 219 218 219 222 216 199 166 148 145 135 119 101 92 99 100 125 132 116 113 123 137
205 213 207 210 203 186 156 143 137 131 112 111 103 90 100 105 119 114 116 121 119 111
184 194 187 190 171 149 142 134 126 108 115 108 92 97 95 99 114 118 123 116 85 99
171 169 164 152 148 131 123 123 119 114 95 77 93 93 88 96 118 126 112 81 96 89
165 162 145 133 123 122 128 124 108 91 92 94 88 91 91 108 129 110 106 123 114 112

GFSNIL_con_3kmhel_024.txt.gz
Helicity
276 297 278 247 202 176 186 186 159 157 147 130 112 97 84 83 80 84 89 97 101 103
300 295 310 200 196 246 234 202 176 162 149 133 116 103 92 91 91 94 109 117 114 111
322 352 240 245 254 268 233 203 185 168 150 135 124 111 102 104 106 106 126 137 129 121
352 265 262 322 262 262 230 205 186 168 155 141 127 119 111 108 114 120 139 134 124 121
282 309 289 253 265 237 224 204 188 175 162 150 139 129 119 116 124 132 130 127 126 122
332 321 300 285 251 230 209 203 193 176 163 156 144 128 120 121 123 121 118 121 123 122
286 261 284 261 238 221 208 198 186 174 172 157 138 124 120 118 112 114 112 113 109 121
288 290 272 251 229 219 205 193 172 172 160 147 128 132 124 114 114 104 108 104 113 130
280 290 251 229 208 198 191 169 171 163 151 134 129 133 114 113 108 104 101 112 129 131
274 257 216 195 183 174 162 163 157 145 129 129 121 123 116 101 92 108 121 121 126 143
229 210 183 168 163 163 162 151 136 130 125 110 124 110 97 87 91 118 119 121 129 157
171 164 158 159 163 158 135 126 126 111 110 125 105 101 93 97 105 114 119 132 129 149
155 154 156 152 140 130 126 119 104 114 99 105 89 97 90 91 104 124 155 134 113 94
158 150 145 137 128 121 114 109 114 102 91 83 93 95 89 99 124 145 142 127 107 98

GFSNIL_con_3kmhel_027.txt.gz
Helicity
287 284 308 353 384 386 330 277 246 197 165 149 126 112 95 84 78 79 74 88 100 114
244 281 312 369 343 320 277 230 207 194 173 146 130 113 96 92 82 82 98 108 110 110
246 317 391 362 347 322 236 202 200 204 173 150 133 119 109 105 112 104 117 123 123 134
271 402 358 362 403 270 244 211 201 196 174 150 134 121 107 116 119 110 121 125 133 139
325 337 359 365 314 278 262 234 200 191 171 152 139 127 116 115 116 123 124 138 148 143
353 394 395 363 312 312 252 235 212 184 168 156 147 130 129 136 135 130 133 139 144 141
370 386 400 335 334 304 262 204 188 177 168 164 150 137 147 135 124 125 133 131 128 129
417 420 399 318 320 277 200 179 165 153 159 162 131 164 157 129 132 130 121 120 125 134
393 339 349 263 252 201 153 170 149 167 167 140 160 166 135 137 129 112 111 127 141 153
348 219 189 215 186 197 179 165 176 159 142 147 125 162 128 113 99 104 109 133 148 160
122 203 226 199 201 199 172 160 152 142 126 119 137 135 108 93 83 102 117 135 131 149
160 219 216 199 175 166 168 151 128 110 129 117 108 129 100 96 105 117 115 124 151 154
154 176 178 170 174 156 131 113 126 126 102 106 93 106 111 111 114 109 150 165 158 137
179 165 158 149 125 115 134 126 106 97 81 84 97 114 114 108 113 138 161 157 153 153

GFSNIL_con_3kmhel_030.txt.gz
Helicity
408 436 415 431 460 491 497 495 429 385 376 279 237 186 149 127 109 103 92 93 100 108
419 393 374 415 429 504 476 417 382 382 318 249 230 161 134 116 107 98 87 88 98 102
451 443 385 366 370 401 414 376 378 363 283 271 205 165 143 129 119 106 100 96 120 122
451 382 314 284 330 419 389 385 370 304 275 222 176 149 140 132 118 107 102 120 127 128
445 353 363 405 445 439 387 312 352 314 242 211 166 146 136 117 118 111 111 128 143 142
330 357 395 485 478 464 377 352 325 305 260 200 177 155 140 135 125 125 123 132 138 142
344 412 416 440 418 409 387 334 335 309 234 181 154 136 115 111 117 120 143 138 139 145
362 393 461 492 438 506 310 353 261 263 190 129 108 109 146 159 151 157 144 140 139 148
403 473 462 436 494 329 195 224 304 193 145 157 128 150 145 146 142 145 141 136 137 147
435 478 510 507 336 218 282 170 169 165 132 138 133 135 136 144 144 134 123 126 129 140
495 428 297 214 137 157 196 164 147 156 123 122 115 125 154 140 133 119 111 109 120 142
219 206 94 79 114 138 145 146 137 115 122 123 165 130 136 137 126 123 118 128 148 155
58 92 102 125 110 117 133 132 132 127 132 128 122 106 123 120 120 114 127 133 125 107
130 120 108 158 144 142 140 134 128 122 104 99 98 106 94 96 119 106 102 125 142 146

GFSNIL_con_3kmhel_033.txt.gz
Helicity
532 653 633 585 597 548 504 573 582 531 483 388 368 365 324 295 234 160 131 117 109 106
558 581 496 507 487 492 513 570 565 500 465 380 337 330 279 277 216 146 113 100 99 109
551 490 487 472 435 418 433 471 536 485 427 410 291 358 316 249 167 131 111 99 103 112
477 417 411 370 307 331 386 438 498 503 468 275 292 328 264 203 139 120 102 105 94 101
396 346 325 262 246 308 414 458 494 478 306 399 333 258 246 173 123 99 91 84 96 88
382 353 297 299 324 379 424 452 395 394 386 251 294 280 254 184 121 89 89 79 98 102
378 369 374 388 390 394 399 480 419 332 308 308 273 266 170 159 126 115 106 130 131 131
364 380 447 489 487 482 551 540 384 462 306 210 205 185 190 158 120 126 143 156 153 150
384 430 520 529 510 554 458 463 432 365 370 198 172 165 125 133 143 154 154 150 148 136
410 464 504 436 471 475 491 230 241 147 161 137 92 121 166 168 160 146 142 133 127 133
463 452 363 370 314 230 154 154 80 55 75 119 122 156 150 151 146 146 136 128 147 163
282 309 210 169 116 80 73 38 22 105 124 152 126 115 125 137 129 138 135 138 151 145
135 87 32 69 59 25 78 88 126 145 131 101 100 81 99 101 112 131 130 115 134 140
13 0 16 72 88 94 84 107 107 111 116 114 94 90 110 100 107 91 108 124 130 139

GFSNIL_con_3kmhel_036.txt.gz
Helicity
331 425 471 509 526 508 560 584 594 592 594 565 597 505 426 388 405 354 274 277 197 174
301 428 500 507 509 577 595 590 596 557 522 454 564 478 435 414 432 244 288 270 224 154
356 426 466 551 569 502 528 527 513 460 433 457 543 473 471 438 459 289 281 256 195 155
408 464 471 509 443 445 436 433 411 420 457 495 536 500 458 384 253 185 311 234 162 118
413 410 362 349 355 344 325 343 398 492 544 556 558 517 418 203 279 227 232 147 156 130
301 309 278 255 264 304 355 392 410 504 575 541 510 504 348 389 258 205 196 195 159 124
307 286 308 323 342 353 358 406 480 520 508 475 420 351 242 309 266 249 228 185 156 81
434 438 402 375 345 354 397 429 465 471 524 511 438 384 404 310 267 189 133 77 107 133
345 329 378 380 426 448 440 460 490 496 397 384 359 200 226 104 98 86 99 133 154 163
318 341 379 412 430 401 384 373 340 395 308 167 181 114 68 68 84 125 153 162 160 166
302 340 314 313 268 299 243 174 168 192 175 101 57 52 80 109 146 152 152 139 140 148
125 115 159 172 189 168 202 110 111 74 41 46 79 72 94 126 127 129 134 127 131 143
86 123 130 114 96 56 78 56 39 44 62 74 75 70 67 88 117 121 122 131 137 159
91 80 61 45 34 43 17 49 79 95 92 91 88 92 91 93 106 102 128 135 144 149

GFSNIL_con_3kmhel_039.txt.gz
Helicity
142 228 254 325 365 370 397 403 443 491 498 486 510 501 477 474 481 438 332 380 313 289
119 173 242 272 336 348 387 459 470 535 513 533 554 503 500 513 508 495 464 485 344 375
109 179 226 283 326 388 398 430 473 470 508 557 518 482 500 546 497 565 533 412 474 248
104 222 282 313 361 406 410 423 419 416 469 459 448 463 528 544 579 581 498 505 356 198
167 206 251 297 350 388 408 377 365 371 387 441 499 568 582 611 495 474 418 352 207 198
153 200 229 262 279 331 302 330 347 387 437 529 604 645 581 479 425 410 371 317 306 267
156 197 192 219 265 299 320 379 395 422 463 513 511 475 436 432 407 458 452 349 245 186
208 259 294 295 308 330 357 352 392 429 489 491 493 475 508 465 481 427 287 180 123 61
271 317 344 341 340 368 369 381 403 426 423 414 376 326 310 269 289 189 135 61 77 105
240 263 307 323 294 317 300 306 328 320 306 308 239 207 228 191 112 56 76 99 107 137
138 152 181 235 217 165 206 194 222 227 179 185 139 111 82 77 73 99 108 105 100 110
63 85 70 133 128 150 193 170 148 160 99 95 44 36 57 78 90 85 77 88 115 114
118 108 132 109 127 68 83 75 55 44 56 20 21 37 62 61 72 105 123 129 132 120
82 68 26 29 -1 2 30 40 54 69 65 79 81 97 104 128 102 96 108 109 120 134

GFSNIL_con_3kmhel_042.txt.gz
Helicity
51 133 184 201 251 273 288 284 304 379 382 387 393 419 460 416 404 400 379 360 364 364
55 66 108 157 201 219 246 283 298 328 388 420 435 461 461 447 464 450 449 428 440 515
75 65 85 137 179 227 247 292 310 334 388 441 451 432 443 455 471 512 500 518 532 393
119 83 79 119 190 220 241 263 275 295 354 365 378 398 410 449 515 583 606 588 593 465
93 93 98 127 140 200 219 208 227 257 295 315 357 395 436 496 549 598 588 530 504 494
85 87 82 108 145 162 154 162 186 236 296 340 370 425 472 533 542 528 531 434 475 463
-2 75 110 164 194 196 215 257 295 296 328 350 394 462 525 497 554 520 489 377 275 356
126 165 186 216 216 232 246 245 260 316 367 408 471 450 449 453 365 343 292 298 283 264
160 191 210 221 231 254 270 281 318 335 353 377 356 312 283 286 291 264 255 255 191 114
128 171 176 175 192 184 203 231 273 305 293 278 243 202 238 223 209 197 149 75 77 81
114 116 144 158 185 209 217 217 224 241 215 200 150 175 185 131 63 77 95 63 98 128
73 110 157 182 180 193 241 195 209 148 164 131 122 79 62 43 26 73 112 95 97 108
12 74 116 94 90 79 98 104 89 81 52 13 11 28 46 52 76 97 87 90 87 83
59 62 20 16 21 11 21 6 22 31 31 30 37 70 110 95 71 75 87 98 117 116

GFSNIL_con_3kmhel_045.txt.gz
Helicity
170 141 129 119 165 199 210 185 149 193 236 252 298 317 321 328 337 359 345 386 348 358
184 151 120 79 74 97 127 176 159 141 179 208 226 257 282 352 330 323 372 408 404 420
200 182 138 107 78 88 109 124 117 128 149 210 256 279 299 323 327 369 383 443 468 500
229 216 194 147 115 89 109 107 128 113 129 154 182 223 310 341 353 389 466 512 538 580
198 158 176 155 116 65 83 102 127 132 128 136 179 235 296 335 352 421 501 581 600 618
106 160 168 150 96 46 60 134 148 131 128 180 211 258 300 348 434 494 530 528 499 403
71 78 87 161 161 176 238 207 208 202 210 237 268 286 340 392 480 531 457 435 389 281
99 96 96 109 186 212 225 244 233 261 279 284 300 314 379 394 393 383 354 324 291 277
73 70 82 121 138 172 195 203 245 278 267 258 267 261 282 265 252 230 230 249 206 190
48 82 97 91 130 171 189 190 192 166 212 228 189 187 203 191 230 235 204 160 124 101
108 89 73 153 136 189 169 196 193 215 231 197 200 201 169 178 152 110 71 68 74 98
18 18 49 96 118 83 137 156 128 125 141 154 124 119 100 59 56 76 98 109 107 102
32 40 61 36 42 67 85 95 69 72 58 58 37 25 39 45 56 75 84 107 114 119
-4 -12 -26 -16 -15 -3 10 24 21 16 18 1 4 36 61 61 64 83 102 120 132 128

GFSNIL_con_3kmhel_048.txt.gz
Helicity
159 151 146 141 158 172 197 181 151 136 152 151 156 161 175 233 270 274 300 304 311 310
202 186 166 152 136 122 103 117 112 126 141 123 136 172 210 246 236 242 263 268 285 342
256 238 215 191 175 154 118 101 79 89 112 133 179 208 202 209 214 227 228 270 290 360
194 227 241 222 213 184 161 138 113 98 81 91 119 155 182 225 236 233 298 294 333 397
108 136 166 181 188 162 137 132 140 91 82 74 95 133 173 204 232 286 295 333 397 461
100 126 101 95 99 129 178 180 129 71 89 97 135 153 186 239 261 288 305 334 385 414
44 73 67 90 119 160 228 180 152 176 180 128 142 195 207 266 321 348 366 373 351 325
59 66 76 113 118 118 140 167 219 101 210 221 162 189 242 239 267 279 304 296 271 273
50 59 63 76 107 120 141 139 151 181 194 210 201 195 208 237 227 221 241 256 236 245
6 38 54 66 115 126 189 202 159 198 189 220 181 177 134 162 218 211 190 196 193 167
48 53 76 77 113 128 148 159 117 173 174 188 142 168 186 183 191 166 145 152 110 98
32 53 70 89 65 78 98 134 136 147 137 168 149 121 147 79 47 53 61 80 96 92
18 18 23 33 40 33 44 54 27 46 7 15 13 18 21 29 38 44 53 62 80 97
-16 -6 -13 -9 -8 -2 3 2 -2 7 21 19 28 32 50 57 50 60 76 106 135 151